COSMOS 1275 DEB

Satellite information

Favourite Embed

Satellite Type and Status

DEBRISIN ORBIT

Key statistics

Satellite COSMOS 1275 DEB at a glance.

Uptime

16213

Days in orbit

Revolutions

≈ 14.1

Per day

Orbit

LEO

Low Earth Orbit

Inclination

83.1

Latest

Satellite identification and parameters

Extended collection of information and parameters for COSMOS 1275 DEB.

Object identification

Identified? True

Debris? True

Object name: COSMOS 1275 DEB

International designator: 1981-053ET

Object number (NORAD): 13021

Object ID (CCSDS): 13021

Country: COMMONWEALTH OF INDEPENDENT STATES (CIS)

Current information (Y/N): Y

RCS size: SMALL

Orbital parameters

Period: 102.463 minutes

Inclination: 83.1408 deg

SMA: 7253.35 km

Apoapsis: 890.99 km

Periapsis: 859.44 km

RAAN: 107.3561 deg

Eccentricy: 0.00217484

Argument of periapsis: 169.3651 deg

Mean anomaly: 319.5672 deg

Mean motion: 14.05383258 rev/day

Mean motion (dot): 0.00001872 rev/day2

B* drag term: 0.00114289 1/REarth

Two-line elements (TLE)

Creation date: Oct. 24, 2025, 2:48 a.m.

Reference frame: TEME

Reference center: EARTH

Epoch: Oct. 23, 2025, 11:58 p.m. UTC

TLE line 0: 0 COSMOS 1275 DEB

TLE line 1: 1 13021U 81053ET 25296.99904543 .00001872 00000-0 11429-2 0 9998

TLE line 2: 2 13021 83.1408 107.3561 0021748 169.3651 319.5672 14.05383258226494

Live tracking on map

Real-time ground track for satellite COSMOS 1275 DEB.

In-orbit conjunctions

A list of the most updated potential collisions computed for object COSMOS 1275 DEB.

Target Orbit TCA Probability of collision Miss distance Type
FENGYUN 1C DEB SSO 2025-09-07 16:10:35 0.0001388636 342.0 (m) DEBRIS
RADCAL LEO 2025-04-27 03:29:33 0.0001291492 247.0 (m) PAYLOAD
COSMOS 2251 DEB LEO 2024-11-09 21:23:41 0.002123764 385.0 (m) DEBRIS

Associated space launch

Navigation satellite providing location information for the Tsiklon-B navigation system

COSMOS 1275 DEB was lifted into orbit during the mission ‘Kosmos-3M | Parus 27’, on board a Kosmos-3M space rocket.

The launch took place on June 4, 1981, 3:41 p.m. from 132/2.

For more information about the launch, click the button.

Launch to space Kosmos-3M | Parus 27
Kosmos-3M | Parus 27

Agency: N/A

Status: Launch Successful

Launch date: June 4, 1981, 3:41 p.m. UTC

Rocket: Kosmos-3M

Launch pad: 132/2

Location: Plesetsk Cosmodrome, Russian Federation

...

Latest news about this satellite

There are no fresh news available about this satellite. Check back as we update our databases every day.


Newsletter sign-up

Weekly statistics, charts and insights to help you stay on top of the space industry.